Weather History for Shirley, NY

Change the Weather History Date:

Friday, October 11, 2013

  Actual Average (KISP) Record (KISP)
Temperature  
Mean Temperature 64 °F 56 °F  
Max Temperature 69 °F 65 °F 78 °F (1990)
Min Temperature 60 °F 47 °F 31 °F (1993)
Degree Days  
Heating Degree Days 1 10  
Month to date heating degree days 88  
Since 1 July heating degree days 165  
Cooling Degree Days 0 0  
Month to date cooling degree days 9  
Year to date cooling degree days 786  
Growing Degree Days 14 (Base 50)    
Moisture  
Dew Point 56 °F    
Average Humidity 78    
Maximum Humidity 87    
Minimum Humidity 68    
Precipitation  
Precipitation 0.00 in 0.12 in 2.47 in (2006)
Month to date precipitation 1.37  
Year to date precipitation 36.09  
Snow  
Snow 0.00 in 0.00 in - ()
Month to date snowfall 0.0  
Since 1 July snowfall 0.0  
Snow Depth -    
Sea Level Pressure  
Sea Level Pressure 30.07 in    
Wind  
Wind Speed 6 mph (NE)    
Max Wind Speed 8 mph    
Max Gust Speed 21 mph    
Visibility 10 miles    
Events      
T = Trace of Precipitation, MM = Missing Value Source: NWS Daily Summary

Daily Weather History Graph

Daily Weather History Graph

Search for Another Location

Airport:

Trip Planner

Search our weather history database for the weather conditions in past years. The results will help you decide how hot, cold, wet, or windy it might be!

Date:

Astronomy

Oct. 11, 2013 Rise Set
Actual Time 6:58 AM EDT 6:16 PM EDT
Civil Twilight 6:31 AM EDT 6:44 PM EDT
Nautical Twilight 5:59 AM EDT 7:16 PM EDT
Astronomical Twilight 5:27 AM EDT 7:47 PM EDT
Moon 1:39 PM EDT (10/11) 11:57 PM EDT (10/11)
Length of Visible Light 12h 13m
Length of Day
11h 18m
Waxing Crescent, 47% of the Moon is Illuminated
Oct 11
Waxing Crescent
Oct 11
First Quarter
Oct 18
Full
Oct 26
Last Quarter
Nov 3
New

Hourly Weather History & Observations

Time (EDT) Temp. Dew Point Humidity Pressure Visibility Wind Dir Wind Speed Gust Speed Precip Events Conditions
12:07 AM 60.8 °F 55.4 °F 82% 30.09 in 10.0 mi Variable 5.8 mph - N/A   Overcast
12:21 AM 60.8 °F 55.4 °F 82% 30.09 in 10.0 mi Variable 5.8 mph - N/A   Overcast
12:56 AM 60.1 °F 55.0 °F 83% 30.09 in 10.0 mi Variable 5.8 mph - N/A   Overcast
1:56 AM 60.1 °F 55.0 °F 83% 30.06 in 10.0 mi NNE 5.8 mph - N/A   Overcast
2:56 AM 61.0 °F 55.9 °F 83% 30.06 in 10.0 mi North 3.5 mph - N/A   Overcast
3:56 AM 60.1 °F 55.9 °F 86% 30.05 in 10.0 mi Variable 5.8 mph - N/A   Overcast
4:56 AM 60.1 °F 55.9 °F 86% 30.05 in 10.0 mi NNE 6.9 mph - N/A   Overcast
5:56 AM 61.0 °F 55.9 °F 83% 30.05 in 10.0 mi Variable 6.9 mph - N/A   Overcast
6:56 AM 61.0 °F 57.0 °F 87% 30.05 in 10.0 mi Variable 5.8 mph - N/A   Overcast
7:56 AM 61.0 °F 57.0 °F 87% 30.07 in 10.0 mi Variable 4.6 mph - N/A   Overcast
8:56 AM 62.1 °F 57.0 °F 84% 30.06 in 10.0 mi NNE 8.1 mph - N/A   Overcast
9:56 AM 62.1 °F 57.0 °F 84% 30.06 in 10.0 mi Variable 5.8 mph - N/A   Overcast
10:56 AM 63.0 °F 57.0 °F 81% 30.06 in 10.0 mi Variable 5.8 mph - N/A   Overcast
11:10 AM 64.4 °F 57.2 °F 77% 30.07 in 10.0 mi Variable 5.8 mph - N/A   Overcast
11:21 AM 64.4 °F 57.2 °F 77% 30.07 in 10.0 mi Variable 5.8 mph - N/A   Overcast
11:56 AM 64.0 °F 57.9 °F 80% 30.08 in 10.0 mi Variable 6.9 mph - N/A   Overcast
12:56 PM 66.0 °F 57.9 °F 75% 30.05 in 10.0 mi Variable 4.6 mph - N/A   Overcast
1:48 PM 68.0 °F 57.2 °F 68% 30.04 in 10.0 mi ENE 8.1 mph - N/A   Overcast
1:56 PM 68.0 °F 57.9 °F 70% 30.05 in 10.0 mi Variable 6.9 mph 20.7 mph N/A   Overcast
2:56 PM 68.0 °F 57.9 °F 70% 30.04 in 10.0 mi Variable 6.9 mph - N/A   Overcast
3:56 PM 68.0 °F 57.0 °F 68% 30.04 in 10.0 mi ENE 8.1 mph - N/A   Overcast
4:56 PM 66.9 °F 57.0 °F 70% 30.04 in 10.0 mi Variable 5.8 mph - N/A   Mostly Cloudy
5:56 PM 66.9 °F 57.0 °F 70% 30.05 in 10.0 mi Variable 5.8 mph - N/A   Clear
6:56 PM 66.0 °F 57.0 °F 73% 30.07 in 10.0 mi Variable 3.5 mph - N/A   Overcast
7:56 PM 66.0 °F 55.9 °F 70% 30.09 in 10.0 mi Variable 4.6 mph - N/A   Overcast
8:56 PM 64.9 °F 55.9 °F 73% 30.09 in 10.0 mi Variable 4.6 mph - N/A   Overcast
9:23 PM 64.4 °F 55.4 °F 73% 30.09 in 10.0 mi Variable 5.8 mph - N/A   Mostly Cloudy
9:56 PM 64.0 °F 55.0 °F 73% 30.10 in 10.0 mi Variable 5.8 mph - N/A   Clear
10:56 PM 63.0 °F 54.0 °F 72% 30.10 in 10.0 mi Variable 4.6 mph - N/A   Partly Cloudy
11:56 PM 61.0 °F 53.1 °F 75% 30.09 in 10.0 mi Variable 3.5 mph - N/A   Mostly Cloudy